TimeEDT,TemperatureF,Dew PointF,Humidity,Sea Level PressureIn,VisibilityMPH,Wind Direction,Wind SpeedMPH,Gust SpeedMPH,PrecipitationIn,Events,Conditions,WindDirDegrees,DateUTC
2:53 AM,71.1,64.9,81,29.99,10.0,NE,8.1,-,N/A,,Partly Cloudy,50,2012-10-23 06:53:00
3:53 AM,70.0,64.0,81,29.98,10.0,NE,8.1,-,N/A,,Clear,50,2012-10-23 07:53:00
4:53 AM,69.1,64.0,84,29.98,10.0,NE,4.6,-,N/A,,Clear,40,2012-10-23 08:53:00
5:53 AM,68.0,64.0,87,29.98,10.0,NE,4.6,-,N/A,,Clear,40,2012-10-23 09:53:00
6:53 AM,68.0,63.0,84,29.99,10.0,NNE,6.9,-,N/A,,Clear,30,2012-10-23 10:53:00
7:53 AM,68.0,63.0,84,29.99,10.0,NE,6.9,-,N/A,,Clear,40,2012-10-23 11:53:00
8:53 AM,72.0,64.0,76,30.00,10.0,NE,6.9,-,N/A,,Clear,40,2012-10-23 12:53:00
9:53 AM,77.0,66.9,71,30.00,10.0,NE,11.5,-,N/A,,Clear,50,2012-10-23 13:53:00
10:53 AM,80.1,66.0,62,30.00,10.0,ENE,13.8,-,N/A,,Clear,70,2012-10-23 14:53:00
11:53 AM,82.9,64.0,53,29.99,10.0,East,13.8,23.0,N/A,,Scattered Clouds,90,2012-10-23 15:53:00
1:53 PM,86.0,64.0,48,29.93,10.0,ENE,12.7,19.6,N/A,,Mostly Cloudy,60,2012-10-23 17:53:00
2:53 PM,84.9,63.0,48,29.92,10.0,East,13.8,-,N/A,,Scattered Clouds,90,2012-10-23 18:53:00
3:53 PM,84.9,64.0,49,29.91,10.0,East,11.5,-,N/A,,Scattered Clouds,90,2012-10-23 19:53:00
4:53 PM,86.0,64.9,49,29.91,10.0,ENE,11.5,19.6,N/A,,Scattered Clouds,70,2012-10-23 20:53:00
5:53 PM,81.0,68.0,65,29.93,10.0,ENE,20.7,26.5,N/A,,Scattered Clouds,60,2012-10-23 21:53:00
6:53 PM,78.1,68.0,71,29.94,10.0,ENE,13.8,20.7,N/A,,Clear,60,2012-10-23 22:53:00
7:53 PM,77.0,66.9,71,29.96,10.0,ENE,9.2,-,N/A,,Overcast,60,2012-10-23 23:53:00
8:53 PM,75.9,66.9,74,29.98,10.0,ENE,11.5,-,N/A,,Mostly Cloudy,70,2012-10-24 00:53:00
9:53 PM,75.9,66.9,74,29.99,10.0,ENE,9.2,-,N/A,,Overcast,60,2012-10-24 01:53:00
10:53 PM,73.9,66.9,79,30.00,10.0,NE,8.1,-,N/A,,Clear,50,2012-10-24 02:53:00
11:53 PM,73.0,66.9,81,29.99,10.0,NE,5.8,-,N/A,,Clear,40,2012-10-24 03:53:00